User: anonymous   Login
Location: Azul
(36.7830°S, 59.8500°W)
Time: 10:10:46
(UTC-03:00)
Language:

EO-88 - Orbit

View from above orbital plane
View from above orbital plane
View from above satellite
View from above satellite

Ground track
Ground track

The orbit data is extracted from the following two-line orbital elements,

1 42017U 17008BX  21294.44619030  .00004081  00000-0  14715-3 0  9999
2 42017  97.3033 359.7660 0006474  36.1260 324.0416 15.29078466260507
Epoch (UTC): 21 October 2021 10:42:30
Eccentricity: 0.0006474
inclination: 97.3033°
perigee height: 474 km
apogee height: 483 km
right ascension of ascending node: 359.7660°
argument of perigee: 36.1260°
revolutions per day: 15.29078466
mean anomaly at epoch: 324.0416°
orbit number at epoch: 26050

The dashed part of the orbit path shows where the satellite is in the earth's shadow,  

DLR